Welcome to the New NWS' Forecast!
Most changes are behind the scenes, but click here for differences you might notice.
Latest weather observations around

Troy, Troy Municipal Airport (KTOI)

Using English Units (Switch to International System of Units)
Date/ Time (CST) Wind (mph) Vis. (mi) Weather Sky Cond. Temp (°F) Rel. Humidity Wind Chill (°F) Heat Index (°F) Pressure Precip. (in)
Air Dwpt 6 hour Altimeter (inHg) Sea level (inHg) 1 hr 3 hr 6 hr
Max Min
Jan 21 20:53 Calm 10 Clear CLR 50 43     77%     30.16 30.16      
Jan 21 19:53 Calm 10 Clear CLR 50 44     80%     30.16 30.16      
Jan 21 18:53 Calm 10 Clear CLR 52 43     71%     30.16 30.16      
Jan 21 17:53 Calm 10 Clear CLR 59 44     58%     30.15 30.15      
Jan 21 16:53 ESE 6 10 Clear CLR 64 44     48%     30.16 30.15      
Jan 21 15:53 6 10 Clear CLR 70 44     39%     30.16 30.15      
Jan 21 14:53 ESE 8 10 Clear CLR 72 44     37%   71 30.15 30.14      
Jan 21 13:53 ESE 9 10 Clear CLR 71 44     38%   70 30.16 30.15      
Jan 21 12:53 3 10 Clear CLR 70 44     39%     30.19 30.18      
Jan 21 11:53 6 10 Clear CLR 68 43     40%     30.23 30.22      
Jan 21 10:53 SSE 7 10 Clear CLR 66 42     42%     30.27 30.27      
Jan 21 09:53 7 10 Clear CLR 62 42     48%     30.29 30.28      
Jan 21 08:53 Calm 10 Clear CLR 52 42     69%     30.28 30.27      
Jan 21 07:53 E 6 10 Clear CLR 40 38     93% 36   30.25 30.25      
Jan 21 06:53 Calm 10 Clear CLR 34 33     96%     30.26 30.26      
Jan 21 05:53 Calm 10 Clear CLR 35 33     92%     30.24 30.24      
Jan 21 04:53 Calm 10 Clear CLR 35 34     96%     30.22 30.22      
Jan 21 03:53 NW 3 10 Clear CLR 35 34     96% 32   30.24 30.24      
Jan 21 02:53 Calm 10 Clear CLR 37 35     92%     30.24 30.23      
Jan 21 01:53 Calm 10 Clear CLR 38 36     92%     30.23 30.23      
Jan 21 00:53 Calm 10 Clear CLR 39 37     93%     30.24 30.24      
Jan 20 23:53 Calm 10 Clear CLR 41 39     93%     30.25 30.25      
Jan 20 22:53 Calm 10 Clear CLR 43 40     89%     30.27 30.27      
Jan 20 21:53 Calm 10 Clear CLR 44 41     89%     30.27 30.27      
Jan 20 20:53 Calm 10 Clear CLR 46 41     82%     30.27 30.27      
Jan 20 19:53 Calm 10 Clear CLR 45 40     82%     30.27 30.27      
Jan 20 18:53 Calm 10 Clear CLR 49 41     74%     30.26 30.26      
Jan 20 17:53 Calm 10 Clear CLR 51 41     68%     30.25 30.25      
Jan 20 16:53 Calm 10 Clear CLR 60 41     49%     30.24 30.24      
Jan 20 15:53 Calm 10 Clear CLR 63 40     43%     30.24 30.24      
Jan 20 14:53 WSW 5 10 Clear CLR 65 40     40%     30.25 30.25      
Jan 20 13:53 Calm 10 Clear CLR 64 40     41%     30.25 30.25      
Jan 20 12:53 3 10 Clear CLR 62 38     41%     30.27 30.27      
Jan 20 11:53 Calm 10 Mostly Cloudy BKN048 57 32     39%     30.3 30.3      
Jan 20 10:53 W 3 10 Cloudy OVC048 53 28     38%     30.34 30.34      
Jan 20 09:53 S 3 10 Cloudy OVC045 52 27     38%     30.34 30.34      
Jan 20 08:53 Calm 10 Cloudy OVC043 42 29     59%     30.33 30.33      
Jan 20 07:53 Calm 10 Cloudy OVC042 36 29     75%     30.31 30.32      
Jan 20 06:53 SW 5 10 Cloudy OVC042 33 28     82% 29   30.31 30.31      
Jan 20 05:53 NNE 5 10 Cloudy OVC042 33 26     75% 29   30.29 30.29      
Jan 20 04:53 Calm 10 Cloudy OVC043 29 26     89%     30.29 30.29      
Jan 20 03:53 Calm 10 Mostly Cloudy BKN044 27 24     89%     30.29 30.29      
Jan 20 02:53 Calm 10 Clear CLR 27 24     89%     30.29 30.29      
Jan 20 01:53 Calm 10 Clear CLR 29 24     82%     30.28 30.28      
Jan 20 00:53 Calm 10 Clear CLR 28 23     81%     30.28 30.28      
Jan 19 23:53 Calm 10 Clear CLR 29 23     78%     30.28 30.29      
Jan 19 22:53 Calm 10 Clear CLR 30 23     75%     30.29 30.29      
Jan 19 21:53 Calm 10 Clear CLR 31 23     72%     30.29 30.29      
Jan 19 20:53 Calm 10 Clear CLR 31 23     72%     30.29 30.29      
Jan 19 19:53 Calm 10 Clear CLR 33 23     66%     30.29 30.29      
Jan 19 18:53 Calm 10 Clear CLR 37 22     54%     30.28 30.29      
Jan 19 17:53 Calm 10 Clear CLR 41 20     43%     30.27 30.28      
Jan 19 16:53 NW 3 10 Clear CLR 51 11     20%     30.27 30.27      
Jan 19 15:53 5 10 Clear CLR 54 8     16%     30.27 30.27      
Jan 19 14:53 W 3 10 Clear CLR 55 6     14%     30.27 30.27      
Jan 19 13:53 N 6 10 Clear CLR 55 9     16%     30.28 30.28      
Jan 19 12:53 5 10 Clear CLR 52 14     22%     30.31 30.31      
Jan 19 11:53 3 10 Clear CLR 51 13     21%     30.35 30.35      
Jan 19 10:53 3 10 Clear CLR 46 12     25% 45   30.39 30.39      
Jan 19 09:53 N 5 10 Clear CLR 41 16     36% 38   30.41 30.41      
Jan 19 08:53 Calm 10 Clear CLR 32 26     78%     30.4 30.4      
Jan 19 07:53 Calm 10 Clear CLR 25 21     85%     30.38 30.39      
Jan 19 06:53 Calm 10 Clear CLR 18 15     88%     30.38 30.39      
Jan 19 05:53 Calm 10 Clear CLR 19 16     88%     30.36 30.37      
Jan 19 04:53 Calm 10 Clear CLR 19 16     88%     30.36 30.37      
Jan 19 03:53 Calm 10 Clear CLR 20 17     88%     30.37 30.37      
Jan 19 02:53 Calm 10 Clear CLR 20 18     92%     30.37 30.38      
Jan 19 01:53 Calm 10 Clear CLR 21 18     88%     30.37 30.38      
Jan 19 00:53 Calm 10 Clear CLR 22 19     88%     30.37 30.38      
Jan 18 23:53 Calm 10 Clear CLR 22 20     92%     30.38 30.39      
Jan 18 22:53 Calm 10 Clear CLR 22 21     96%     30.39 30.4      
Jun 12 06:39 3 10 Mostly Clear FEW002 71 71     100%   73 30.15        
Jun 12 05:53 Calm 10 Mostly Clear FEW011 70 70     100%     30.14 30.12      
Jun 11 21:53 SSW 3 9 Cloudy OVC100 74 70     87%   75 30.15 30.13 0 0  
Jun 11 20:00 Calm 10 Cloudy OVC070 75 74     96%   77 30.11        
Notice The following observation data may not be complete
Jun 11 07:13   10 Partly Cloudy SCT016          %              
Jun 10 12:53 ESE 9 10 Mostly Cloudy FEW050 BKN075 87 64     46%   88 30.08 30.06      
Jun 10 04:53 Calm 10 Clear CLR 63 63     100%     30.01 30      
Jun 09 15:53   10 Clear CLR 86 60     42%   86 29.93 29.92      
Jun 08 12:53 6 10 Mostly Clear FEW040 81 62     53%   82 29.91 29.89      
Jun 08 09:53 5 10 Clear CLR 73 62     68%   73 29.91 29.9      
Jun 08 07:53 NE 8 10 Clear CLR 68 63     84%     29.9 29.89      
Jun 08 00:53 Calm 10 Clear CLR 68 67     96%     29.84 29.82      
Jun 07 10:53 NE 10 10 Mostly Cloudy BKN019 BKN024 BKN032 79 70     74%   82 29.76 29.74      
Notice The following observation data may not be complete
Jun 06 03:28   8 Partly Cloudy FEW002 SCT015          %              
Jun 05 22:53 Calm 10 Cloudy SCT024 BKN050 OVC095 72 72     100%   74 29.84 29.83      
Jun 05 16:53 S 8 10 Mostly Clear FEW032 81 71     72%   85 29.8 29.78      
Jun 05 15:53 SSE 8 10 Mostly Clear FEW018 79 73     82%   82 29.8 29.78   0  
Jun 05 14:32 S 5 10 Mostly Clear FEW007 75 73     94%   77 29.84   0